Zurück zum Katalog

STARLINK-4181

AktivKommunikationVLEO
NORAD 52882·PAYLOAD·🇺🇸 United States

Gestartet Jun 17, 2022 von Cape Canaveral Space Force Station

Loading…

Nächste Überflüge (nächste 24 Stunden)

TLE

AktuellSource: CelesTrak SupGP

Epoche: Sep 14, 2026, 22:18 UTC

1 52882C 22062BE  26257.92965278  .00026135  00000+0  97339-3 0  2574
2 52882  53.1535 237.9319 0002093  60.9619   2.0104 15.26916820    16

Verfolge STARLINK-4181 in Echtzeit mit AllMySat

Download on the App Store